Location: Unspecified
(45.0173°N, 35.2345°E)
Time: 07:44:15
(UTC+02:00)

Tiangong - Pass Details

Date: 29 January 2026
Orbit: 386 x 393 km, 41.5° (Epoch: 8 February)

Event Time Altitude Azimuth Distance (km) Brightness Sun altitude
Exits shadow 04:27:27 12° 133° (SE) 1,302 1.0 -27.4°
Drops below altitude 10° 04:27:48 10° 130° (SE) 1,428 1.3 -27.4°
Sets 04:30:06 0° 120° (ESE) 2,317 2.7 -27.0°
